Location: Arbon
(43.0005°N, 0.7472°E)
Time: 11:37:06
(UTC+00:00)

Cosmos 1447 Rocket - Pass Details

Date: 22 April 2026
Orbit: 953 x 996 km, 82.9° (Epoch: 15 May)

Event Time Altitude Azimuth Distance (km) Brightness Sun altitude
Rises 21:18:04 0° 355° (N) 3,687 8.3 -23.9°
Reaches altitude 10° 21:20:39 10° 358° (N) 2,729 7.5 -24.2°
Maximum altitude 21:26:50 63° 80° (E) 1,072 4.5 -25.0°
Enters shadow 21:27:42 57° 118° (ESE) 1,127 4.4 -25.1°
